Location: Champseau
(45.8333°N, 1.7667°E)
Time: 06:34:15
(UTC+00:00)

CARTOSAT-1 - Pass Details

Date: 18 April 2021
Orbit: 615 x 619 km, 97.8° (Epoch: 15 May)

Event Time Altitude Azimuth Distance (km) Brightness Sun altitude
Exits shadow 21:04:20 61° 105° (ESE) 703 3.5 -21.7°
Maximum altitude 21:04:43 65° 74° (ENE) 683 3.5 -21.8°
Drops below altitude 10° 21:09:01 10° 353° (N) 1,994 6.9 -22.3°
Sets 21:11:13 0° 350° (N) 2,904 7.9 -22.5°
